METEOR 2-17 DEB, 31397

Orbit data source: Space-Track

METEOR 2-17 DEB, 31397 is space debris in LEO originally from a launch on Sat, 30 Jan 1988 UTC launched from the Plesetsk Missile And Space Complex (PKMTR). Debris objects in space refer to the collection of defunct objects orbiting the Earth. Examples of debris include non-operational satellites, rocket bodies, and fragments generated from explosions, collisions, or faulty payload assembly.

Loading next visibility...
Identifier
31397, 1988-005S
Orbit
LEO
Country
Flag of CISCIS
Related business
Manufacturer
Unknown
Mission
Spacecraft
Bus & Motor
Unknown
Mass
Unknown
Launch date (UTC)
1988-01-30 (38 years ago)
Launch vehicle
Unknown
Launch site
Plesetsk Missile And Space Complex (PKMTR)
Object type
Payload
Rocket body
Debris
Shape & HBR
Unknown shape, 0.1 m
Radar Cross Section
Small (<0.1 m²)

Expand to show TLE details & history
Last TLE update: 1 day ago

TLE from 1 day ago
0 METEOR 2-17 DEB
1 31397U 88005S   25351.15689769  .00002754  00000-0  17437-2 0  9993
2 31397  82.5314  56.8605 0005528  46.4522 342.6670 14.03667158964706
Epoch: 2025-12-17T03:45Z
TLE epoch observation values (Epoch: 2025-12-17T03:45:55.960Z)
Latitude
28.87615°
Longitude
-81.52936°
Altitude
880.884 km
Speed
7.416 km/s
True Right ascension
04h 03m 56s
True Declination
28° 44' 00"
Sunlit
Object was in full shadow at epoch
Visualization orbit readout
Latitude
Unknown
Longitude
Unknown
Altitude
Unknown
Speed
Unknown
Apparent Right ascension
Unknown
Apparent Declination
Unknown
Sunlit
N/A
Visualization observer readout
Local Sidereal Time
08:19:03
Azimuth
Unknown
Elevation
Unknown
Doppler factor
Unknown
Orbital elements
Apogee altitude
882.261 km
Perigee altitude
874.238 km
Semi-major axis
7,256.387 km
Eccentricity
0.00055
Inclination
82.5314°
RAAN
56.8605°
Arg. of periapsis
46.4522°
True anomaly
342.64812°
Mean anomaly
342.667°
Eccentric anomaly
342.65756°
Mean motion
3.51126 °/min
Orbital period
102.53 mins
BSTAR
0.0017437
Loading maneuver chart data...
Computing Atmospheric mass density...
Loading historical data...
Loading historical data...
Loading historical data...
Loading historical data...
Loading historical data...
Loading historical data...
Loading historical data...

Documentation

Showing up to 5 results
|